�N����,����,�~����,�C��,���x,�C��,����,���ϕ���,�ő�u�ԕ���,�ő厞����,���˗�,�I�_���x,�n�����x,�ő啗���N��,DTYPE
"16/08/19","00:10",0.0,25.3,83.2,1000.8,350.0,1.5,2.5,348.9,0.00,22.3,26.9,"00:05:04",1
"16/08/19","00:20",0.0,25.3,83.4,1000.8,341.7,1.3,3.6,4.2,0.00,22.3,26.8,"00:12:32",1
"16/08/19","00:30",0.0,25.2,83.7,1000.8,348.0,1.3,2.5,347.8,0.00,22.3,26.9,"00:20:24",1
"16/08/19","00:40",0.0,25.1,84.1,1000.5,337.3,1.1,2.8,340.6,0.00,22.3,26.8,"00:37:52",1
"16/08/19","00:50",0.0,25.1,84.5,1000.5,333.5,1.1,2.4,335.2,0.00,22.3,26.8,"00:48:48",1
"16/08/19","01:00",0.0,25.1,84.7,1000.5,324.5,1.0,2.2,352.5,0.00,22.4,26.7,"00:51:04",1
"16/08/19","01:10",0.0,25.0,85.1,1000.5,337.6,1.2,2.6,344.3,0.00,22.4,26.9,"01:06:24",1
"16/08/19","01:20",0.0,24.9,85.4,1000.3,326.7,1.1,2.9,356.0,0.00,22.3,26.6,"01:10:24",1
"16/08/19","01:30",0.0,24.9,85.4,1000.5,314.0,0.8,1.7,319.6,0.00,22.3,26.6,"01:21:28",1
"16/08/19","01:40",0.0,24.8,85.9,1000.3,312.3,0.8,1.4,311.9,0.00,22.3,26.5,"01:39:44",1
"16/08/19","01:50",0.0,24.7,86.2,1000.3,305.5,0.8,1.3,323.8,0.00,22.3,26.4,"01:41:04",1
"16/08/19","02:00",0.0,24.6,86.6,1000.3,288.7,0.6,1.2,303.2,0.00,22.3,26.5,"01:52:16",1
"16/08/19","02:10",0.0,24.5,87.0,1000.5,301.1,0.6,1.3,317.3,0.00,22.2,26.5,"02:09:04",1
"16/08/19","02:20",0.0,24.6,87.2,1000.3,315.1,0.8,1.3,316.0,0.00,22.4,26.4,"02:11:28",1
"16/08/19","02:30",0.0,24.6,87.1,1000.5,328.5,1.0,1.8,339.2,0.00,22.4,26.3,"02:29:36",1
"16/08/19","02:40",0.0,24.6,87.4,1000.5,311.8,0.8,1.8,328.5,0.00,22.4,26.3,"02:33:12",1
"16/08/19","02:50",0.0,24.4,87.8,1000.5,297.8,0.7,1.4,358.1,0.00,22.3,26.2,"02:47:44",1
"16/08/19","03:00",0.0,24.3,88.3,1000.3,293.6,0.6,1.2,312.2,0.00,22.3,26.2,"02:59:20",1
"16/08/19","03:10",0.0,24.3,88.7,1000.3,306.7,0.8,1.6,312.3,0.00,22.4,26.2,"03:06:16",1
"16/08/19","03:20",0.0,24.4,88.7,1000.3,322.7,1.0,1.4,324.7,0.00,22.5,26.4,"03:13:04",1
"16/08/19","03:30",0.0,24.5,88.6,1000.5,323.3,0.8,1.9,2.9,0.00,22.5,26.2,"03:22:32",1
"16/08/19","03:40",0.0,24.4,88.7,1000.5,328.3,1.0,1.8,356.9,0.00,22.5,26.0,"03:33:44",1
"16/08/19","03:50",0.0,24.4,88.8,1000.5,333.7,1.1,2.2,347.3,0.00,22.5,26.0,"03:42:40",1
"16/08/19","04:00",0.0,24.4,88.9,1000.8,333.0,1.1,2.1,350.2,0.00,22.5,26.0,"03:52:08",1
"16/08/19","04:10",0.0,24.4,89.0,1000.8,338.0,1.1,2.5,0.5,0.00,22.5,26.2,"04:09:28",1
"16/08/19","04:20",0.0,24.6,88.6,1001.0,341.6,1.2,2.8,350.1,0.00,22.6,26.2,"04:12:08",1
"16/08/19","04:30",0.0,24.6,88.4,1000.8,333.2,1.2,2.2,4.4,0.00,22.6,26.2,"04:25:36",1
"16/08/19","04:40",0.0,24.7,88.1,1001.0,324.3,1.2,1.7,340.3,0.00,22.6,26.2,"04:37:28",1
"16/08/19","04:50",0.0,24.9,87.8,1001.0,323.4,1.1,1.8,305.6,0.00,22.8,26.0,"04:41:44",1
"16/08/19","05:00",0.0,24.9,87.4,1001.0,323.7,0.8,1.7,315.4,0.00,22.7,26.0,"04:51:28",1
"16/08/19","05:10",0.0,24.9,87.0,1000.8,321.5,1.0,2.0,348.6,0.00,22.6,26.0,"05:02:48",1
"16/08/19","05:20",0.0,24.9,87.1,1001.2,324.2,1.0,1.8,339.0,0.00,22.6,26.1,"05:16:08",1
"16/08/19","05:30",0.0,24.9,87.2,1001.0,328.0,1.0,1.9,357.4,0.00,22.7,26.0,"05:26:56",1
"16/08/19","05:40",0.0,24.9,87.1,1000.8,331.0,1.1,1.9,342.6,0.00,22.6,26.0,"05:30:24",1
"16/08/19","05:50",0.0,24.8,87.2,1001.2,308.7,0.7,1.3,314.3,0.00,22.6,25.9,"05:49:52",1
"16/08/19","06:00",0.0,24.9,87.3,1001.2,319.6,0.8,1.7,340.2,0.00,22.7,26.1,"05:59:04",1
"16/08/19","06:10",0.0,25.1,87.1,1001.0,332.1,1.1,2.4,35.2,0.01,22.8,25.9,"06:02:48",1
"16/08/19","06:20",0.0,25.4,86.6,1001.0,344.3,1.2,2.5,347.0,0.02,23.0,26.1,"06:11:20",1
"16/08/19","06:30",0.0,25.7,86.0,1001.2,342.6,1.3,2.6,338.0,0.02,23.2,25.9,"06:26:00",1
"16/08/19","06:40",0.0,26.1,84.6,1001.2,351.1,1.0,2.0,357.1,0.04,23.3,26.0,"06:30:02",1
"16/08/19","06:50",0.0,26.5,83.1,1001.0,345.9,1.0,2.2,355.8,0.05,23.4,26.1,"06:42:40",1
"16/08/19","07:00",0.0,27.0,81.3,1001.5,333.3,0.5,1.9,5.5,0.07,23.6,26.1,"06:50:48",1
"16/08/19","07:10",0.0,27.7,79.5,1001.2,330.6,0.3,1.7,13.4,0.09,23.9,26.1,"07:07:28",1
"16/08/19","07:20",0.0,28.5,77.3,1001.2,33.9,0.3,1.1,25.1,0.11,24.2,25.9,"07:13:52",1
"16/08/19","07:30",0.0,28.6,77.7,1001.2,356.9,0.7,1.9,2.6,0.13,24.4,26.4,"07:21:36",1
"16/08/19","07:40",0.0,29.3,74.8,1000.5,331.1,0.3,1.2,4.0,0.15,24.4,26.4,"07:30:40",1
"16/08/19","07:50",0.0,29.7,72.2,1001.2,65.5,0.3,1.6,359.9,0.17,24.2,26.4,"07:49:28",1
"16/08/19","08:00",0.0,29.8,73.3,1001.5,184.2,0.5,1.4,217.1,0.19,24.5,26.4,"07:55:52",1
"16/08/19","08:10",0.0,29.8,72.3,1001.7,169.5,0.8,2.0,217.3,0.22,24.3,26.4,"08:06:32",1
"16/08/19","08:20",0.0,30.5,72.2,1001.9,95.1,0.6,1.7,30.6,0.25,25.0,26.7,"08:13:20",1
"16/08/19","08:30",0.0,30.7,69.2,1002.2,67.8,0.5,1.4,44.3,0.27,24.4,26.9,"08:21:36",1
"16/08/19","08:40",0.0,30.9,68.5,1002.4,138.7,0.7,1.6,123.8,0.29,24.5,27.0,"08:35:52",1
"16/08/19","08:50",0.0,31.3,68.1,1003.1,137.2,0.7,1.8,216.9,0.30,24.7,26.9,"08:46:40",1
"16/08/19","09:00",0.0,31.3,67.0,1002.6,158.6,1.2,2.0,115.1,0.34,24.5,27.2,"08:59:52",1
"16/08/19","09:10",0.0,31.9,67.3,1002.4,84.7,0.7,2.0,109.1,0.37,25.1,27.4,"09:02:56",1
"16/08/19","09:20",0.0,32.3,66.0,1002.4,142.1,1.1,2.4,148.5,0.39,25.2,27.5,"09:19:20",1
"16/08/19","09:30",0.0,32.3,64.6,1002.9,99.3,1.1,2.8,134.9,0.43,24.8,27.7,"09:22:32",1
"16/08/19","09:40",0.0,31.3,66.4,1002.9,126.8,0.6,1.7,120.6,0.20,24.3,27.6,"09:32:24",1
"16/08/19","09:50",0.0,32.5,62.5,1002.9,115.5,0.6,1.4,112.4,0.40,24.4,27.8,"09:46:08",1
"16/08/19","10:00",0.0,31.5,65.1,1002.9,39.8,0.5,1.2,74.4,0.12,24.2,27.8,"09:54:56",1
"16/08/19","10:10",0.0,32.0,65.6,1002.6,120.2,0.3,1.4,156.7,0.25,24.8,28.0,"10:05:52",1
"16/08/19","10:20",0.0,32.0,65.5,1002.6,60.0,0.8,1.9,206.3,0.26,24.8,28.2,"10:10:32",1
"16/08/19","10:30",0.0,32.7,64.0,1002.6,117.4,0.3,1.3,108.6,0.35,25.0,28.2,"10:20:08",1
"16/08/19","10:40",0.0,32.6,61.0,1002.4,134.5,0.6,2.4,100.6,0.33,24.1,28.5,"10:35:28",1
"16/08/19","10:50",0.0,33.6,60.2,1002.6,104.9,1.0,2.4,106.7,0.47,24.9,28.7,"10:46:32",1
"16/08/19","11:00",0.0,32.8,61.2,1002.2,22.7,0.7,1.9,22.8,0.18,24.4,28.6,"10:59:28",1
"16/08/19","11:10",0.0,33.4,61.2,1001.7,67.5,0.8,2.0,97.7,0.33,24.9,28.8,"11:06:08",1
"16/08/19","11:20",0.0,34.0,60.8,1001.9,97.6,1.1,2.2,130.0,0.49,25.4,28.8,"11:10:24",1
"16/08/19","11:30",0.0,34.1,60.4,1001.9,4.1,1.0,2.4,357.2,0.47,25.4,29.0,"11:28:24",1
"16/08/19","11:40",0.0,35.0,56.9,1001.9,65.1,1.3,2.9,205.6,0.57,25.2,29.2,"11:36:08",1
"16/08/19","11:50",0.0,35.2,52.7,1002.4,130.8,1.0,2.5,150.7,0.63,24.1,29.2,"11:45:28",1
"16/08/19","12:00",0.0,34.4,53.8,1002.4,143.6,1.2,2.9,142.0,0.44,23.7,29.4,"11:52:40",1
"16/08/19","12:10",0.0,34.1,53.9,1002.2,112.5,1.1,3.1,8.8,0.32,23.5,29.8,"12:00:02",1
"16/08/19","12:20",0.0,35.6,52.8,1001.9,165.3,0.7,1.8,223.5,0.55,24.5,29.9,"12:19:28",1
"16/08/19","12:30",0.0,34.6,53.8,1001.9,130.4,1.2,2.7,124.5,0.38,23.9,29.9,"12:28:16",1
"16/08/19","12:40",0.0,35.1,48.9,1001.9,105.2,1.2,3.6,210.9,0.51,22.8,30.2,"12:32:48",1
"16/08/19","12:50",0.0,34.5,56.9,1001.2,133.5,1.0,2.0,120.2,0.27,24.8,30.2,"12:44:08",1
"16/08/19","13:00",0.0,34.2,53.0,1001.5,103.6,0.8,2.9,66.7,0.31,23.3,30.2,"12:50:08",1
"16/08/19","13:10",0.0,34.6,53.7,1001.2,129.2,1.0,2.5,144.9,0.32,23.9,30.3,"13:09:44",1
"16/08/19","13:20",0.0,36.1,46.9,1001.2,118.0,1.0,2.4,126.2,0.59,23.0,30.4,"13:11:20",1
"16/08/19","13:30",0.0,36.4,49.5,1001.7,128.2,1.0,2.4,133.5,0.58,24.2,30.6,"13:24:56",1
"16/08/19","13:40",0.0,35.4,51.3,1001.2,60.8,0.8,2.7,340.7,0.37,23.9,30.8,"13:39:28",1
"16/08/19","13:50",0.0,35.9,51.8,1001.2,18.7,1.2,2.7,338.3,0.48,24.5,30.9,"13:44:48",1
"16/08/19","14:00",0.0,35.4,50.0,1001.2,15.0,1.3,3.4,9.4,0.40,23.4,30.9,"13:51:20",1
"16/08/19","14:10",0.0,34.7,52.8,1000.8,25.4,0.7,1.9,23.0,0.13,23.7,30.9,"14:04:40",1
"16/08/19","14:20",0.0,34.4,53.2,1000.3,17.0,0.8,2.2,327.4,0.13,23.5,30.9,"14:16:24",1
"16/08/19","14:30",0.0,34.2,56.1,1000.0,359.0,0.7,1.9,17.1,0.13,24.2,30.9,"14:26:16",1
"16/08/19","14:40",0.0,33.9,55.1,999.6,358.4,0.7,1.4,351.9,0.10,23.7,30.7,"14:33:20",1
"16/08/19","14:50",0.0,34.4,56.7,999.3,5.4,1.0,1.9,17.1,0.17,24.6,30.8,"14:49:04",1
"16/08/19","15:00",0.0,35.1,54.6,999.8,13.3,1.2,2.2,3.4,0.29,24.6,30.7,"14:51:44",1
"16/08/19","15:10",0.0,33.6,60.5,999.1,14.2,1.5,5.2,351.1,0.11,24.9,30.7,"15:09:36",1
"16/08/19","15:20",0.0,32.2,64.1,999.1,4.3,2.2,4.4,0.2,0.10,24.6,30.4,"15:18:24",1
"16/08/19","15:30",0.0,32.1,65.5,998.9,0.5,1.7,3.6,8.9,0.08,24.9,30.6,"15:20:56",1
"16/08/19","15:40",0.0,31.7,65.0,998.4,358.4,2.1,4.5,359.9,0.06,24.3,30.2,"15:32:32",1
"16/08/19","15:50",0.0,31.2,66.2,998.2,7.5,2.2,4.8,30.5,0.05,24.2,30.2,"15:48:00",1
"16/08/19","16:00",0.0,30.9,67.8,997.9,9.9,2.5,5.1,2.6,0.05,24.3,30.0,"15:59:44",1
"16/08/19","16:10",0.0,31.0,69.3,997.9,358.1,1.8,3.6,1.0,0.09,24.8,30.0,"16:03:52",1
"16/08/19","16:20",0.0,31.2,69.2,997.9,356.7,1.5,3.5,357.8,0.11,24.9,30.0,"16:11:12",1
"16/08/19","16:30",0.0,31.2,69.0,997.9,353.8,1.6,2.9,6.0,0.11,24.9,29.7,"16:24:24",1
"16/08/19","16:40",0.0,31.6,68.2,997.7,0.8,1.5,3.4,2.5,0.12,25.1,29.7,"16:31:20",1
"16/08/19","16:50",0.0,32.1,65.1,997.9,348.7,0.7,1.8,14.0,0.10,24.8,29.7,"16:40:08",1
"16/08/19","17:00",0.0,32.1,65.2,997.9,315.7,0.8,4.8,355.5,0.08,24.8,29.8,"16:59:52",1
"16/08/19","17:10",0.0,32.0,65.2,997.7,352.2,1.5,2.9,14.6,0.07,24.7,29.6,"17:01:36",1
"16/08/19","17:20",0.0,31.8,65.4,997.9,2.1,2.1,4.8,345.2,0.06,24.5,29.7,"17:11:28",1
"16/08/19","17:30",0.0,31.5,65.5,997.7,1.7,2.3,4.8,358.9,0.05,24.3,29.5,"17:27:20",1
"16/08/19","17:40",0.0,31.1,67.1,997.9,6.2,2.0,4.5,352.8,0.04,24.3,29.4,"17:34:56",1
"16/08/19","17:50",0.0,30.9,68.2,997.7,355.2,1.3,3.5,352.5,0.03,24.4,29.2,"17:42:00",1
"16/08/19","18:00",0.0,30.7,69.0,997.7,1.3,1.5,4.4,344.8,0.03,24.4,29.4,"17:56:24",1
"16/08/19","18:10",0.0,30.6,69.4,997.4,348.8,1.1,3.7,325.8,0.02,24.4,29.2,"18:04:48",1
"16/08/19","18:20",0.0,30.4,70.2,997.9,350.1,1.2,4.4,6.2,0.01,24.4,29.3,"18:11:28",1
"16/08/19","18:30",0.0,30.1,70.8,997.9,352.9,1.3,5.1,358.3,0.00,24.3,29.3,"18:25:20",1
"16/08/19","18:40",0.0,29.9,71.9,997.9,350.1,1.5,6.3,357.6,0.00,24.3,29.1,"18:38:00",1
"16/08/19","18:50",0.0,29.7,73.3,997.7,356.1,1.8,4.4,348.2,0.00,24.4,29.1,"18:41:28",1
"16/08/19","19:00",0.0,29.4,73.8,997.9,357.1,2.5,5.8,359.9,0.00,24.3,29.0,"18:55:36",1
"16/08/19","19:10",0.0,29.1,73.5,997.7,336.8,1.6,3.5,33.8,0.00,23.9,28.8,"19:00:56",1
"16/08/19","19:20",0.0,28.9,73.6,998.2,330.3,1.2,3.4,346.8,0.00,23.7,28.9,"19:13:12",1
"16/08/19","19:30",0.0,28.7,73.6,998.6,324.7,1.1,4.0,355.2,0.00,23.6,28.5,"19:23:20",1
"16/08/19","19:40",0.0,28.5,74.0,998.9,339.0,0.7,2.4,354.2,0.00,23.5,28.5,"19:35:04",1
"16/08/19","19:50",0.0,28.4,74.2,999.3,348.1,1.1,3.1,12.0,0.00,23.4,28.4,"19:41:28",1
"16/08/19","20:00",0.0,28.4,74.3,998.9,355.5,1.5,3.4,18.4,0.00,23.4,28.3,"19:54:08",1
"16/08/19","20:10",0.0,28.3,74.1,999.6,6.6,1.3,2.4,354.4,0.00,23.3,28.4,"20:00:32",1
"16/08/19","20:20",0.0,28.2,74.5,999.8,1.9,1.0,2.2,357.7,0.00,23.3,28.3,"20:14:00",1
"16/08/19","20:30",0.0,27.9,74.9,999.8,357.1,1.1,2.6,12.9,0.00,23.1,28.2,"20:26:16",1
"16/08/19","20:40",0.0,27.9,75.4,999.6,346.7,1.6,3.4,346.3,0.00,23.2,28.2,"20:38:48",1
"16/08/19","20:50",0.0,27.7,76.2,999.6,329.5,1.1,2.7,338.6,0.00,23.2,28.2,"20:40:16",1
"16/08/19","21:00",0.0,27.6,76.6,999.8,326.8,1.2,2.9,3.1,0.00,23.2,28.1,"20:55:04",1
"16/08/19","21:10",0.0,27.7,76.0,999.6,319.2,1.5,4.2,314.9,0.00,23.1,27.9,"21:07:04",1
"16/08/19","21:20",0.0,27.7,75.8,999.6,328.2,1.6,4.9,353.3,0.00,23.1,27.8,"21:17:36",1
"16/08/19","21:30",0.0,27.6,76.1,999.8,329.5,1.3,3.5,342.1,0.00,23.0,28.1,"21:28:48",1
"16/08/19","21:40",0.0,27.5,76.3,999.3,331.5,1.5,4.7,336.7,0.00,23.0,27.9,"21:30:32",1
"16/08/19","21:50",0.0,27.4,76.8,999.6,322.5,1.2,2.8,6.0,0.00,23.0,27.8,"21:40:48",1
"16/08/19","22:00",0.0,27.3,77.0,999.8,310.4,0.7,1.8,336.1,0.00,23.0,27.6,"21:57:04",1
"16/08/19","22:10",0.0,27.3,77.0,1000.0,315.4,0.7,2.8,353.8,0.00,23.0,27.3,"22:06:56",1
"16/08/19","22:20",0.0,27.2,77.5,999.6,278.0,0.8,2.1,225.0,0.00,23.0,27.6,"22:14:16",1
"16/08/19","22:30",0.0,27.1,78.0,999.8,332.0,0.7,2.4,359.7,0.00,23.0,27.3,"22:29:20",1
"16/08/19","22:40",0.0,26.8,78.6,1000.3,330.7,0.8,1.9,345.9,0.00,22.8,27.6,"22:30:40",1
"16/08/19","22:50",0.0,26.6,79.7,1000.3,324.3,0.8,1.4,335.2,0.00,22.8,27.5,"22:40:32",1
"16/08/19","23:00",0.0,26.2,81.5,1000.3,309.9,0.5,1.0,340.0,0.00,22.8,27.3,"22:52:24",1
"16/08/19","23:10",0.0,26.0,82.7,1000.5,331.4,0.7,1.2,336.5,0.00,22.9,27.4,"23:05:36",1
"16/08/19","23:20",0.0,25.9,83.1,1000.5,306.1,0.7,1.2,340.1,0.00,22.9,27.2,"23:11:28",1
"16/08/19","23:30",0.0,25.9,83.0,1000.0,309.4,0.5,1.1,313.3,0.00,22.8,27.2,"23:24:40",1
"16/08/19","23:40",0.0,25.9,83.2,1000.0,298.4,0.6,1.9,338.0,0.00,22.9,27.2,"23:36:24",1
"16/08/19","23:50",0.0,26.0,83.3,999.8,305.1,0.6,1.3,349.7,0.00,23.0,27.1,"23:47:52",1
"16/08/19","24:00",0.0,25.9,83.4,999.8,296.3,0.6,1.4,329.0,0.00,22.9,27.2,"23:51:44",1
